Home   Weather   Ica   Past weeks

Flag for Peru Past Weather in Ica, Ica, Peru — Yesterday and Last 2 Weeks

Now
70 °F

Low clouds.


Feels Like: 70 °F
Forecast: 69 / 87 °F
Wind: 3 mph from Northwest

Location: Pisco Airport

Current Time: Apr 24, 2017 at 2:43:32 am

Latest Report: Apr 24, 2017 at 2:00 am


Visibility: 4 mi

Pressure: 29.86 "Hg

Humidity: 88%

Dew Point: 66 °F

Location of IcaLocation

Past Weather in Ica — Graph

°F

Ica Temperature Yesterday

Maximum temperature yesterday: 73 °F (at 12:00 pm)
Minimum temperature yesterday: 66 °F (at 6:00 am)
Average temperature yesterday: 71 °F

High & Low Weather Summary for the Past Weeks

 TemperatureHumidityPressure
High82 °F (Apr 10, 3:00 pm)94% (Apr 9, 3:00 am)29.98 "Hg (Apr 9, 3:00 am)
Low66 °F (Apr 9, 5:00 am)55% (Apr 10, 4:00 pm)29.74 "Hg (Apr 12, 3:00 pm)
Average73 °F78%29.85 "Hg
* Reported Apr 9 1:00 am — Apr 24 1:00 am, Ica, Weather by CustomWeather, © 2017

Note: Actual official high and low records may vary slightly from our data, if they occured in-between our weather recording intervals... More about our weather records

Advertising

Ica Weather History for the Previous 24 Hours

Scroll right to see more
 ConditionsComfort  
Time TempWeatherWind HumidityBarometerVisibility
1:00 am
Mon, Apr 24
70 °FLow clouds.5 mph88%29.86 "Hg4 mi
12:00 am70 °FLow clouds.5 mph88%29.89 "Hg4 mi
11:00 pm
Sun, Apr 23
70 °FPassing clouds.6 mph88%29.89 "Hg5 mi
10:00 pm70 °FPassing clouds.6 mph88%29.89 "Hg5 mi
9:00 pm72 °FOvercast.6 mph88%29.89 "Hg5 mi
8:00 pm72 °FPassing clouds.8 mph83%29.86 "Hg5 mi
7:00 pm70 °FPassing clouds.9 mph88%29.83 "Hg5 mi
6:00 pm72 °FPassing clouds.13 mph83%29.83 "Hg5 mi
5:00 pm72 °FScattered clouds.9 mph83%29.80 "Hg5 mi
4:00 pm73 °FPartly sunny.8 mph78%29.80 "Hg5 mi
3:00 pm73 °FScattered clouds.10 mph78%29.80 "Hg5 mi
2:00 pm73 °FBroken clouds.10 mph83%29.83 "Hg5 mi
1:00 pm73 °FPassing clouds.10 mph78%29.86 "Hg5 mi
12:00 pm73 °FPartly sunny.10 mph83%29.89 "Hg5 mi
11:16 am72 °FPartly sunny.9 mph88%29.89 "Hg4 mi
11:00 am72 °FScattered clouds.9 mph88%29.89 "Hg4 mi
10:00 am72 °FLow clouds.8 mph88%29.92 "Hg4 mi
9:00 am72 °FPassing clouds.3 mph83%29.89 "Hg5 mi
8:00 am70 °FPassing clouds.7 mph83%29.89 "Hg5 mi
7:00 am66 °FBroken clouds.5 mph94%29.86 "Hg5 mi
6:00 am66 °FPassing clouds.6 mph94%29.83 "Hg5 mi
5:00 am68 °FClear.7 mph88%29.83 "Hg10 mi
4:00 am68 °FClear.7 mph88%29.83 "Hg10 mi
3:00 am68 °FClear.3 mph88%29.83 "Hg10 mi
2:00 am68 °FClear.3 mph94%29.83 "Hg10 mi
Weather by CustomWeather, © 2017

See weather overviewHow to use our weather pages